#timestamp,LO_Frequency,Hit,StdDev 
1590184815.7,286047002.4,N
1590184835.5,286047000.2,N
1590184855.3,286047000.6,N
1590184875.2,286047000.5,N
1590184895.0,286047001.1,N
1590184895.9,286047001.1,N
1590184915.8,286046998.6,N
1590184935.6,286046998.8,N
1590184955.4,286046999.0,N
1590184975.3,286046999.0,N
1590184995.1,286046998.4,N
1590185015.8,286046998.2,N
1590185035.7,286047000.4,N
1590185055.5,286047002.0,N
1590185075.4,286047005.7,Y
1590185095.2,286047005.7,P
1590185115.0,286047005.9,N
1590185115.9,286047005.9,N
1590185135.8,286047005.9,N
1590185155.6,286047003.3,N
1590185175.5,286047005.8,N
1590185195.3,286047006.0,N
1590185215.1,286047005.7,N
1590185235.9,286047005.0,N
1590185255.7,286047004.5,N
1590185275.5,286047005.2,Y
1590185295.4,286047002.4,P
1590185315.2,286047000.2,N
1590185335.0,286047000.4,N
1590185336.0,286047000.4,N
1590185355.8,286046998.2,N
1590185375.6,286047001.0,N
1590185395.5,286047000.2,N
1590185415.3,286046999.7,N
1590185435.1,286046999.9,N
1590185455.9,286047000.6,N
1590185475.7,286047001.2,N
1590185495.6,286047000.8,N
1590185515.4,286047000.8,N
1590185535.2,286046999.3,N
1590185555.1,286046999.6,N
1590185556.0,286046999.6,N
1590185575.8,286046996.5,N
1590185595.6,286046999.3,N
1590185615.5,286046998.5,N
1590185635.3,286047000.7,N
1590185655.1,286047002.8,N
1590185675.9,286047000.2,N
1590185695.7,286047001.2,N
1590185715.6,286046998.7,N
1590185735.4,286046998.6,N
1590185755.2,286047001.2,N
1590185775.1,286046999.4,N
1590185776.0,286046999.4,N
1590185795.8,286046996.5,N
1590185815.6,286046999.0,N
1590185835.5,286046999.2,N
1590185855.3,286047001.0,N
1590185875.2,286047001.0,N
1590185895.9,286047000.4,N
1590185915.7,286047000.7,N
1590185935.6,286046999.8,N
1590185955.4,286047000.2,N
1590185975.3,286047000.7,N
1590185995.1,286046998.9,N
1590185996.0,286046998.9,N
1590186015.8,286046999.5,N
1590186035.7,286046997.0,N
1590186055.5,286046996.8,N
1590186075.3,286046998.8,N
1590186095.2,286046999.5,N
1590186115.0,286047001.2,N
1590186115.9,286047001.2,N
1590186135.8,286046998.7,N
1590186155.6,286047000.7,N
1590186175.4,286046998.5,N
1590186195.3,286046999.0,N
1590186215.1,286046998.7,N
1590186235.9,286046998.6,N
1590186255.7,286047000.3,N
1590186275.5,286047000.9,N
1590186295.4,286046998.7,N
1590186315.2,286047001.1,N
1590186335.1,286047001.2,N
1590186336.0,286047001.2,N
1590186355.8,286046999.7,N
1590186375.6,286046999.8,N
1590186395.5,286047000.7,N
1590186415.3,286046999.3,N
1590186435.1,286046999.2,N
1590186455.9,286046996.8,N
1590186475.7,286046999.4,N
1590186495.6,286046999.1,N
1590186515.4,286046999.0,N
1590186535.2,286046997.0,N
1590186555.1,286046996.9,N
1590186556.0,286046996.9,N
1590186575.8,286046995.0,Y
1590186595.7,286046997.3,P
1590186615.5,286046997.2,N
1590186635.3,286046997.0,P
1590186655.2,286046999.0,N
1590186675.0,286046996.6,Y
1590186675.9,286046996.6,P
1590186695.8,286046999.6,N
1590186715.6,286046997.2,N
1590186735.4,286046999.0,N
1590186755.3,286046998.3,N
1590186775.1,286046999.6,N
1590186795.8,286046998.6,N
1590186815.7,286047001.1,N
1590186835.5,286047000.3,N
1590186855.4,286046999.9,N
1590186875.2,286046999.0,N
1590186895.0,286046998.8,N
1590186895.9,286046998.8,N
1590186915.8,286046996.6,N
1590186935.6,286046999.0,N
1590186955.5,286046998.7,N
1590186975.3,286046998.1,N
1590186995.1,286047000.7,N
1590187015.9,286046998.6,N
1590187035.7,286046998.5,N
1590187055.5,286046996.5,Y
1590187075.4,286046998.6,P
1590187095.2,286047000.7,P
1590187115.0,286047000.5,N
1590187116.0,286047000.5,N
1590187135.8,286047000.0,N
1590187155.6,286047002.2,N
1590187175.5,286047001.7,N
1590187195.3,286047002.2,N
1590187215.1,286047002.3,N
1590187235.9,286047002.3,N
1590187255.7,286046999.7,N
1590187275.5,286047002.3,N
1590187295.4,286047002.4,N
1590187315.2,286047000.7,N
1590187335.1,286046998.3,N
1590187336.0,286046998.3,N
1590187355.8,286046998.1,N
1590187375.6,286047000.2,N
1590187395.5,286047001.0,N
1590187415.3,286047000.4,N
1590187435.1,286047000.6,N
1590187455.9,286046999.9,N
1590187475.7,286047000.4,N
1590187495.6,286047002.7,N
1590187515.4,286046999.4,N
1590187535.2,286046998.3,N
1590187555.1,286046999.4,N
1590187556.0,286046999.4,N
1590187575.8,286046998.3,N
1590187595.6,286046999.8,N
1590187615.5,286047002.3,N
1590187635.3,286046999.8,N
1590187655.2,286047000.6,N
1590187675.9,286047000.2,N
1590187695.7,286046999.8,N
1590187715.6,286047001.7,N
1590187735.4,286047002.9,N
1590187755.2,286047007.6,Y
1590187775.1,286047005.1,P
1590187776.0,286047005.1,N
1590187795.8,286047004.5,N
1590187815.7,286047004.6,N
1590187835.5,286047006.1,Y
1590187855.3,286047001.3,P
1590187875.2,286047001.3,N
1590187895.0,286047002.8,N
1590187895.9,286047002.8,N
1590187915.7,286047002.5,N
1590187935.6,286047000.4,N
1590187955.4,286046999.6,N
1590187975.3,286046999.5,N
1590187995.1,286046999.0,N
1590187996.0,286046999.0,N
1590188015.8,286046999.4,N
1590188035.7,286046999.3,N
1590188055.5,286046996.8,N
1590188075.4,286046999.3,N
1590188095.2,286046999.0,N
1590188115.0,286046996.8,N
1590188115.9,286046996.8,N
1590188135.8,286046997.8,N
1590188155.6,286046998.0,N
1590188175.4,286046996.6,N
1590188195.3,286046998.9,N
1590188215.1,286046998.6,N
1590188235.9,286047001.2,N
1590188255.7,286047000.8,N
1590188275.5,286046999.9,N
1590188295.4,286047002.2,N
1590188315.2,286046999.8,N
1590188335.0,286047000.7,N
1590188335.9,286047000.7,N
1590188355.8,286047002.6,N
1590188375.6,286047000.2,N
1590188395.5,286046998.3,N
